Simultaneous Nadir Overpasses (SNOs) Predictions

Prediction of SNOs between AQUA and NPP Satellite Orbit:

Table of predicted SNOs for the next 14.0 days since TLE Epoch: 7/1/2023
Index Date (AQUA) Time (AQUA) Lat,Lon (AQUA) SZA (AQUA ) Date (NPP) Time (NPP) Lat,Lon (NPP) SZA (NPP ) Distance(km) Time Diff (sec)
1 07/01/2023 15:02:10 80.55,-137.46 67.72 07/01/2023 15:01:06 80.55,-137.41 67.75 0.97 64
2 07/01/2023 15:51:33 -80.60, 30.77 112.38 07/01/2023 15:51:49 -80.60, 30.63 112.37 2.50 16
3 07/04/2023 05:37:05 80.60, 4.39 67.83 07/04/2023 05:36:30 80.60, 4.53 67.83 2.54 35
4 07/04/2023 06:26:28 -80.65, 172.65 112.27 07/04/2023 06:27:13 -80.65, 172.58 112.29 1.24 45
5 07/06/2023 20:12:00 80.63, 146.02 68.03 07/06/2023 20:11:55 80.63, 146.11 68.02 1.58 5
6 07/06/2023 21:00:58 -81.28, -36.75 113.48 07/06/2023 21:02:12 -81.13, -36.48 113.58 17.37 74
7 07/09/2023 09:57:34 -80.56, 118.87 111.54 07/09/2023 09:56:40 -80.56, 118.79 111.49 1.45 54
8 07/09/2023 10:46:54 80.67, -72.23 68.26 07/09/2023 10:47:20 80.66, -72.34 68.26 2.05 26
9 07/12/2023 00:32:27 -80.61, -99.26 111.30 07/12/2023 00:32:04 -80.61, -99.34 111.27 1.57 23
10 07/12/2023 01:21:47 80.71, 69.62 68.50 07/12/2023 01:22:44 80.71, 69.53 68.48 1.76 57
11 07/14/2023 14:17:56 80.58,-125.98 69.14 07/14/2023 14:16:45 80.58,-125.95 69.19 0.67 71



Historial Predications of SNOs between AQUA and NPP
